NKS9973 SKBO-KGYR

Flight info

Callsign NKS9973
Flight time 6h 50m
Altitude 38000
Route VASIL4U VASIL UL423 PULOX UM549 TBG UM419 ANSON UM206 SESNO UJ15E MTY UJ15 MOV UT3 URKOM DCT ALIBY J50 SSO SUNSS8
Aircraft A321/M-SDE3FGHIRWY/LB1

Departure

Time 2026-05-07 19:27
Airport El Dorado International Airport (SKBO)

Arrival

Time 2026-05-08 02:17
Airport Phoenix Goodyear Airport (KGYR)
Time Latitude Longitude Altitude Speed Heading
2026-05-07 19:07 4.69839 -74.14635 8371 ft 0 kts 81°
2026-05-07 19:13 4.69838 -74.14637 8371 ft 2 kts 81°
2026-05-07 19:13 4.69836 -74.14652 8371 ft 2 kts 81°
2026-05-07 19:14 4.69834 -74.14668 8371 ft 2 kts 81°
2026-05-07 19:14 4.69831 -74.14683 8371 ft 2 kts 93°
2026-05-07 19:14 4.69835 -74.14696 8371 ft 2 kts 120°
2026-05-07 19:14 4.69845 -74.14709 8371 ft 2 kts 144°
2026-05-07 19:15 4.69859 -74.14716 8371 ft 2 kts 167°
2026-05-07 19:15 4.69875 -74.14716 8371 ft 2 kts 199°
2026-05-07 19:15 4.69883 -74.14711 8371 ft 1 kts 217°
2026-05-07 19:15 4.69888 -74.14707 8371 ft 0 kts 218°
2026-05-07 19:18 4.69874 -74.14717 8371 ft 6 kts 214°
2026-05-07 19:19 4.69813 -74.14758 8369 ft 14 kts 214°
2026-05-07 19:19 4.69732 -74.14826 8368 ft 12 kts 240°
2026-05-07 19:19 4.69775 -74.14912 8368 ft 17 kts 323°
2026-05-07 19:19 4.69876 -74.15014 8368 ft 22 kts 308°
2026-05-07 19:20 4.69982 -74.15152 8370 ft 26 kts 307°
2026-05-07 19:20 4.70101 -74.15312 8370 ft 29 kts 308°
2026-05-07 19:20 4.70217 -74.15469 8370 ft 25 kts 306°
2026-05-07 19:20 4.70319 -74.15607 8367 ft 23 kts 307°
2026-05-07 19:21 4.70418 -74.15731 8365 ft 21 kts 308°
2026-05-07 19:21 4.70508 -74.15851 8362 ft 20 kts 306°
2026-05-07 19:21 4.70592 -74.15964 8360 ft 19 kts 307°
2026-05-07 19:21 4.70673 -74.16068 8358 ft 18 kts 307°
2026-05-07 19:22 4.70748 -74.16168 8356 ft 17 kts 307°
2026-05-07 19:22 4.70818 -74.16260 8355 ft 15 kts 307°
2026-05-07 19:22 4.70881 -74.16341 8355 ft 13 kts 308°
2026-05-07 19:22 4.70936 -74.16412 8355 ft 12 kts 307°
2026-05-07 19:23 4.70986 -74.16476 8355 ft 10 kts 308°
2026-05-07 19:23 4.71032 -74.16534 8355 ft 10 kts 308°
2026-05-07 19:23 4.71085 -74.16604 8355 ft 13 kts 307°
2026-05-07 19:23 4.71143 -74.16683 8354 ft 13 kts 306°
2026-05-07 19:24 4.71166 -74.16714 8354 ft 0 kts 307°
2026-05-07 19:24 4.71166 -74.16713 8354 ft 0 kts 307°
2026-05-07 19:24 4.71165 -74.16712 8354 ft 0 kts 307°
2026-05-07 19:24 4.71188 -74.16743 8355 ft 9 kts 306°
2026-05-07 19:25 4.71198 -74.16799 8355 ft 7 kts 240°
2026-05-07 19:25 4.71156 -74.16836 8354 ft 10 kts 215°
2026-05-07 19:25 4.71078 -74.16881 8355 ft 12 kts 191°
2026-05-07 19:25 4.71008 -74.16856 8354 ft 10 kts 133°
2026-05-07 19:26 4.70913 -74.16734 8353 ft 52 kts 126°
2026-05-07 19:26 4.70545 -74.16233 8355 ft 122 kts 127°
2026-05-07 19:26 4.69903 -74.15380 8403 ft 175 kts 124°
2026-05-07 19:26 4.69133 -74.14339 8883 ft 187 kts 128°
2026-05-07 19:27 4.68278 -74.13390 9574 ft 188 kts 147°
2026-05-07 19:27 4.67025 -74.13139 10271 ft 192 kts 192°
2026-05-07 19:27 4.65888 -74.13850 10735 ft 203 kts 229°
2026-05-07 19:27 4.65107 -74.15089 11002 ft 216 kts 239°
2026-05-07 19:28 4.64319 -74.16438 11269 ft 230 kts 238°
2026-05-07 19:28 4.63455 -74.17842 11540 ft 244 kts 236°
2026-05-07 19:28 4.62511 -74.19314 11880 ft 254 kts 236°
2026-05-07 19:28 4.61669 -74.20900 12360 ft 259 kts 247°
2026-05-07 19:29 4.61136 -74.22692 12613 ft 276 kts 257°
2026-05-07 19:29 4.60757 -74.24635 12909 ft 292 kts 259°
2026-05-07 19:29 4.60405 -74.26733 13176 ft 309 kts 262°
2026-05-07 19:29 4.60179 -74.28935 13420 ft 326 kts 266°
2026-05-07 19:30 4.60051 -74.31288 13753 ft 338 kts 267°
2026-05-07 19:30 4.59937 -74.33659 14205 ft 344 kts 267°
2026-05-07 19:30 4.59814 -74.36092 14776 ft 346 kts 267°
2026-05-07 19:30 4.59698 -74.38505 15318 ft 349 kts 269°
2026-05-07 19:31 4.59734 -74.40961 15747 ft 352 kts 274°
2026-05-07 19:31 4.59996 -74.43416 15918 ft 352 kts 279°
2026-05-07 19:31 4.60377 -74.45840 15877 ft 352 kts 280°
2026-05-07 19:31 4.60781 -74.48280 15837 ft 352 kts 280°
2026-05-07 19:32 4.61185 -74.50715 15822 ft 353 kts 279°
2026-05-07 19:32 4.61583 -74.53137 15808 ft 353 kts 279°
2026-05-07 19:32 4.61978 -74.55565 15813 ft 352 kts 279°
2026-05-07 19:32 4.62374 -74.58007 15802 ft 352 kts 279°
2026-05-07 19:33 4.62768 -74.60453 15788 ft 352 kts 279°
2026-05-07 19:33 4.63160 -74.62889 15762 ft 352 kts 279°
2026-05-07 19:33 4.63557 -74.65356 15754 ft 352 kts 279°
2026-05-07 19:33 4.63955 -74.67826 15738 ft 352 kts 279°
2026-05-07 19:34 4.64346 -74.70260 15729 ft 352 kts 279°
2026-05-07 19:34 4.64740 -74.72716 15722 ft 352 kts 279°
2026-05-07 19:34 4.65129 -74.75139 15733 ft 352 kts 279°
2026-05-07 19:34 4.65522 -74.77583 15715 ft 352 kts 279°
2026-05-07 19:35 4.65913 -74.80022 15734 ft 353 kts 279°
2026-05-07 19:35 4.66307 -74.82467 15756 ft 353 kts 280°
2026-05-07 19:35 4.66973 -74.84859 15727 ft 351 kts 297°
2026-05-07 19:35 4.68464 -74.86799 15719 ft 348 kts 321°
2026-05-07 19:36 4.70445 -74.88216 15727 ft 347 kts 328°
2026-05-07 19:36 4.72480 -74.89555 15728 ft 347 kts 328°
2026-05-07 19:36 4.74513 -74.90894 15730 ft 347 kts 328°
2026-05-07 19:36 4.76537 -74.92242 15711 ft 347 kts 328°
2026-05-07 19:37 4.78563 -74.93604 15714 ft 347 kts 327°
2026-05-07 19:37 4.80579 -74.94967 15720 ft 348 kts 327°
2026-05-07 19:37 4.82623 -74.96353 15707 ft 347 kts 327°
2026-05-07 19:37 4.84675 -74.97746 15719 ft 347 kts 327°
2026-05-07 19:38 4.86685 -74.99112 15738 ft 347 kts 327°
2026-05-07 19:38 4.88726 -75.00500 15747 ft 347 kts 327°
2026-05-07 19:38 4.90753 -75.01878 15761 ft 347 kts 327°
2026-05-07 19:38 4.92790 -75.03263 15763 ft 347 kts 327°
2026-05-07 19:39 4.94816 -75.04642 15802 ft 348 kts 327°
2026-05-07 19:39 4.96844 -75.06021 15798 ft 348 kts 327°
2026-05-07 19:39 4.98872 -75.07401 15799 ft 347 kts 327°
2026-05-07 19:39 5.00931 -75.08801 15889 ft 352 kts 327°
2026-05-07 19:40 5.02975 -75.10190 16426 ft 355 kts 327°
2026-05-07 19:40 5.05058 -75.11610 17088 ft 355 kts 328°
2026-05-07 19:40 5.07122 -75.13015 17655 ft 357 kts 328°
2026-05-07 19:40 5.09187 -75.14418 18203 ft 360 kts 328°
2026-05-07 19:41 5.11310 -75.15860 18750 ft 362 kts 327°
2026-05-07 19:41 5.13418 -75.17303 19254 ft 365 kts 326°
2026-05-07 19:41 5.15436 -75.18897 19740 ft 369 kts 320°
2026-05-07 19:41 5.17326 -75.20719 20233 ft 372 kts 314°
2026-05-07 19:42 5.19078 -75.22657 20713 ft 374 kts 313°
2026-05-07 19:42 5.20801 -75.24616 21169 ft 376 kts 312°
2026-05-07 19:42 5.22555 -75.26615 21607 ft 379 kts 312°
2026-05-07 19:42 5.24327 -75.28630 22020 ft 381 kts 312°
2026-05-07 19:43 5.26088 -75.30628 22425 ft 384 kts 312°
2026-05-07 19:43 5.27883 -75.32664 22849 ft 386 kts 312°
2026-05-07 19:43 5.29692 -75.34714 23253 ft 389 kts 312°
2026-05-07 19:43 5.31489 -75.36750 23633 ft 392 kts 312°
2026-05-07 19:44 5.33342 -75.38847 24024 ft 395 kts 312°
2026-05-07 19:44 5.35184 -75.40930 24424 ft 398 kts 311°
2026-05-07 19:44 5.37034 -75.43023 24832 ft 400 kts 311°
2026-05-07 19:44 5.38889 -75.45124 25203 ft 403 kts 311°
2026-05-07 19:45 5.40768 -75.47250 25581 ft 406 kts 311°
2026-05-07 19:45 5.42671 -75.49403 25977 ft 408 kts 311°
2026-05-07 19:45 5.44565 -75.51548 26357 ft 410 kts 311°
2026-05-07 19:45 5.46505 -75.53745 26731 ft 413 kts 311°
2026-05-07 19:46 5.48437 -75.55932 27092 ft 415 kts 311°
2026-05-07 19:46 5.50368 -75.58118 27447 ft 418 kts 311°
2026-05-07 19:46 5.52329 -75.60340 27814 ft 420 kts 311°
2026-05-07 19:46 5.54305 -75.62579 28192 ft 422 kts 311°
2026-05-07 19:47 5.56269 -75.64804 28551 ft 424 kts 311°
2026-05-07 19:47 5.58279 -75.67081 28888 ft 427 kts 311°
2026-05-07 19:47 5.60253 -75.69318 29256 ft 428 kts 311°
2026-05-07 19:47 5.62263 -75.71596 29651 ft 429 kts 311°
2026-05-07 19:48 5.64249 -75.73848 30013 ft 430 kts 311°
2026-05-07 19:48 5.66224 -75.76088 30368 ft 431 kts 311°
2026-05-07 19:48 5.68240 -75.78374 30716 ft 433 kts 311°
2026-05-07 19:48 5.70261 -75.80666 31064 ft 434 kts 311°
2026-05-07 19:49 5.72258 -75.82961 31402 ft 435 kts 310°
2026-05-07 19:49 5.74224 -75.85306 31750 ft 435 kts 309°
2026-05-07 19:49 5.76186 -75.87670 32044 ft 437 kts 309°
2026-05-07 19:49 5.78142 -75.90032 32310 ft 439 kts 309°
2026-05-07 19:50 5.80114 -75.92409 32616 ft 441 kts 309°
2026-05-07 19:50 5.82090 -75.94792 32952 ft 442 kts 309°
2026-05-07 19:50 5.84099 -75.97211 33282 ft 444 kts 309°
2026-05-07 19:50 5.86077 -75.99592 33727 ft 443 kts 309°
2026-05-07 19:51 5.88075 -76.01996 34239 ft 440 kts 309°
2026-05-07 19:51 5.90034 -76.04354 34743 ft 437 kts 309°
2026-05-07 19:51 5.92005 -76.06726 35233 ft 434 kts 309°
2026-05-07 19:51 5.93928 -76.09039 35709 ft 431 kts 309°
2026-05-07 19:52 5.95875 -76.11381 36122 ft 429 kts 309°
2026-05-07 19:52 5.97791 -76.13688 36506 ft 428 kts 309°
2026-05-07 19:52 5.99707 -76.15993 36833 ft 427 kts 310°
2026-05-07 19:52 6.01625 -76.18301 37121 ft 427 kts 309°
2026-05-07 19:53 6.03540 -76.20605 37350 ft 428 kts 310°
2026-05-07 19:53 6.05465 -76.22920 37589 ft 429 kts 310°
2026-05-07 19:53 6.07379 -76.25225 37819 ft 430 kts 310°
2026-05-07 19:53 6.09319 -76.27560 38032 ft 431 kts 310°
2026-05-07 19:54 6.11248 -76.29882 38229 ft 432 kts 310°
2026-05-07 19:54 6.13192 -76.32221 38318 ft 433 kts 310°
2026-05-07 19:54 6.17122 -76.36952 38246 ft 433 kts 310°
2026-05-07 19:55 6.21035 -76.41663 38205 ft 434 kts 310°
2026-05-07 19:55 6.24909 -76.46331 38130 ft 434 kts 310°
2026-05-07 19:56 6.28797 -76.51018 38032 ft 434 kts 310°
2026-05-07 19:56 6.32707 -76.55730 37992 ft 434 kts 310°
2026-05-07 19:57 6.36604 -76.60430 37957 ft 435 kts 310°
2026-05-07 19:57 6.40498 -76.65126 37937 ft 436 kts 310°
2026-05-07 19:58 6.44405 -76.69839 37922 ft 437 kts 310°
2026-05-07 19:58 6.48327 -76.74571 37888 ft 437 kts 310°
2026-05-07 19:59 6.52230 -76.79281 37874 ft 436 kts 310°
2026-05-07 19:59 6.56147 -76.84008 37872 ft 437 kts 310°
2026-05-07 20:00 6.60045 -76.88718 37860 ft 438 kts 310°
2026-05-07 20:00 6.63964 -76.93454 37856 ft 439 kts 310°
2026-05-07 20:01 6.67894 -76.98204 37857 ft 439 kts 310°
2026-05-07 20:01 6.71819 -77.02948 37852 ft 440 kts 310°
2026-05-07 20:02 6.75764 -77.07716 37851 ft 440 kts 310°
2026-05-07 20:02 6.79697 -77.12472 37852 ft 440 kts 309°
2026-05-07 20:03 6.83620 -77.17221 37853 ft 439 kts 310°
2026-05-07 20:03 6.87532 -77.21957 37855 ft 439 kts 310°
2026-05-07 20:04 6.91451 -77.26701 37857 ft 439 kts 310°
2026-05-07 20:04 6.95397 -77.31477 37858 ft 440 kts 310°
2026-05-07 20:05 6.99320 -77.36227 37859 ft 440 kts 310°
2026-05-07 20:05 7.03232 -77.40964 37858 ft 439 kts 310°
2026-05-07 20:06 7.07149 -77.45712 37861 ft 439 kts 310°
2026-05-07 20:06 7.11083 -77.50485 37861 ft 439 kts 310°
2026-05-07 20:07 7.14975 -77.55203 37863 ft 439 kts 310°
2026-05-07 20:07 7.18892 -77.59953 37864 ft 439 kts 310°
2026-05-07 20:08 7.22809 -77.64706 37863 ft 438 kts 310°
2026-05-07 20:08 7.26709 -77.69440 37866 ft 438 kts 310°
2026-05-07 20:09 7.30614 -77.74182 37868 ft 438 kts 310°
2026-05-07 20:10 7.36489 -77.81320 37878 ft 438 kts 310°
2026-05-07 20:10 7.40387 -77.86060 37878 ft 438 kts 310°
2026-05-07 20:11 7.44272 -77.90805 37881 ft 438 kts 310°
2026-05-07 20:11 7.48165 -77.95565 37880 ft 438 kts 310°
2026-05-07 20:12 7.52038 -78.00304 37876 ft 437 kts 310°
2026-05-07 20:12 7.55947 -78.05088 37877 ft 437 kts 310°
2026-05-07 20:13 7.59821 -78.09830 37886 ft 437 kts 310°
2026-05-07 20:13 7.63725 -78.14611 37898 ft 438 kts 310°
2026-05-07 20:14 7.67605 -78.19363 37911 ft 438 kts 310°
2026-05-07 20:14 7.71489 -78.24122 37930 ft 438 kts 310°
2026-05-07 20:15 7.75363 -78.28870 37942 ft 438 kts 309°
2026-05-07 20:15 7.79249 -78.33636 37922 ft 438 kts 309°
2026-05-07 20:16 7.83158 -78.38431 37901 ft 438 kts 310°
2026-05-07 20:16 7.87034 -78.43185 37873 ft 438 kts 310°
2026-05-07 20:17 7.90931 -78.47969 37859 ft 438 kts 310°
2026-05-07 20:17 7.94815 -78.52736 37850 ft 438 kts 309°
2026-05-07 20:18 7.98684 -78.57487 37847 ft 438 kts 309°
2026-05-07 20:18 8.02594 -78.62292 37844 ft 437 kts 309°
2026-05-07 20:19 8.06455 -78.67038 37841 ft 437 kts 309°
2026-05-07 20:19 8.10317 -78.71787 37841 ft 436 kts 309°
2026-05-07 20:20 8.14175 -78.76529 37839 ft 436 kts 309°
2026-05-07 20:20 8.18026 -78.81263 37839 ft 436 kts 309°
2026-05-07 20:21 8.21892 -78.86021 37841 ft 436 kts 309°
2026-05-07 20:21 8.25740 -78.90758 37839 ft 436 kts 309°
2026-05-07 20:22 8.29598 -78.95510 37840 ft 435 kts 309°
2026-05-07 20:22 8.33459 -79.00266 37840 ft 436 kts 310°
2026-05-07 20:23 8.37296 -79.04993 37843 ft 436 kts 310°
2026-05-07 20:23 8.41152 -79.09745 37840 ft 435 kts 310°
2026-05-07 20:24 8.45009 -79.14501 37837 ft 435 kts 310°
2026-05-07 20:24 8.48841 -79.19230 37840 ft 435 kts 310°
2026-05-07 20:25 8.52695 -79.23987 37844 ft 435 kts 310°
2026-05-07 20:25 8.56542 -79.28736 37845 ft 435 kts 310°
2026-05-07 20:26 8.60391 -79.33491 37844 ft 436 kts 310°
2026-05-07 20:26 8.64245 -79.38252 37850 ft 436 kts 310°
2026-05-07 20:27 8.68089 -79.43005 37850 ft 435 kts 310°
2026-05-07 20:27 8.71953 -79.47783 37858 ft 436 kts 310°
2026-05-07 20:28 8.75796 -79.52537 37858 ft 436 kts 310°
2026-05-07 20:28 8.79486 -79.57405 37861 ft 437 kts 306°
2026-05-07 20:29 8.82801 -79.62585 37863 ft 437 kts 304°
2026-05-07 20:29 8.86103 -79.67841 37866 ft 438 kts 303°
2026-05-07 20:30 8.89367 -79.73035 37868 ft 438 kts 304°
2026-05-07 20:30 8.92664 -79.78276 37875 ft 438 kts 304°
2026-05-07 20:31 8.95935 -79.83477 37878 ft 438 kts 304°
2026-05-07 20:31 8.99206 -79.88680 37876 ft 439 kts 304°
2026-05-07 20:32 9.02502 -79.93926 37877 ft 439 kts 304°
2026-05-07 20:32 9.05768 -79.99125 37876 ft 440 kts 304°
2026-05-07 20:33 9.09065 -80.04375 37874 ft 440 kts 304°
2026-05-07 20:33 9.12365 -80.09628 37876 ft 440 kts 304°
2026-05-07 20:34 9.15640 -80.14851 37875 ft 439 kts 304°
2026-05-07 20:34 9.18919 -80.20079 37874 ft 439 kts 304°
2026-05-07 20:35 9.22205 -80.25323 37870 ft 438 kts 304°
2026-05-07 20:35 9.25488 -80.30559 37867 ft 439 kts 304°
2026-05-07 20:36 9.28759 -80.35781 37873 ft 439 kts 304°
2026-05-07 20:36 9.32024 -80.40997 37874 ft 439 kts 304°
2026-05-07 20:37 9.35290 -80.46218 37876 ft 438 kts 304°
2026-05-07 20:37 9.38576 -80.51469 37876 ft 438 kts 304°
2026-05-07 20:38 9.41836 -80.56681 37871 ft 438 kts 304°
2026-05-07 20:38 9.45109 -80.61919 37871 ft 438 kts 304°
2026-05-07 20:39 9.48387 -80.67166 37874 ft 439 kts 304°
2026-05-07 20:39 9.51660 -80.72412 37878 ft 439 kts 304°
2026-05-07 20:40 9.54915 -80.77628 37878 ft 439 kts 304°
2026-05-07 20:40 9.58170 -80.82846 37880 ft 438 kts 304°
2026-05-07 20:41 9.61438 -80.88067 37882 ft 438 kts 304°
2026-05-07 20:41 9.64729 -80.93301 37882 ft 438 kts 304°
2026-05-07 20:42 9.68024 -80.98552 37883 ft 438 kts 304°
2026-05-07 20:42 9.71296 -81.03772 37881 ft 438 kts 304°
2026-05-07 20:43 9.74563 -81.08987 37881 ft 438 kts 304°
2026-05-07 20:43 9.77824 -81.14195 37881 ft 438 kts 304°
2026-05-07 20:44 9.81095 -81.19420 37881 ft 438 kts 304°
2026-05-07 20:44 9.84388 -81.24684 37880 ft 438 kts 304°
2026-05-07 20:45 9.87652 -81.29903 37881 ft 438 kts 304°
2026-05-07 20:45 9.90926 -81.35145 37881 ft 438 kts 304°
2026-05-07 20:46 9.94213 -81.40404 37880 ft 438 kts 304°
2026-05-07 20:46 9.97499 -81.45666 37881 ft 439 kts 304°
2026-05-07 20:47 10.00774 -81.50912 37878 ft 439 kts 304°
2026-05-07 20:47 10.04059 -81.56179 37874 ft 440 kts 304°
2026-05-07 20:48 10.07338 -81.61436 37873 ft 440 kts 304°
2026-05-07 20:48 10.10628 -81.66712 37875 ft 440 kts 304°
2026-05-07 20:49 10.13909 -81.71982 37876 ft 440 kts 304°
2026-05-07 20:49 10.17197 -81.77258 37876 ft 440 kts 304°
2026-05-07 20:50 10.20482 -81.82539 37878 ft 440 kts 304°
2026-05-07 20:50 10.23763 -81.87811 37880 ft 440 kts 304°
2026-05-07 20:51 10.27031 -81.93066 37880 ft 440 kts 304°
2026-05-07 20:51 10.30314 -81.98346 37880 ft 440 kts 304°
2026-05-07 20:52 10.33592 -82.03625 37877 ft 440 kts 304°
2026-05-07 20:52 10.36883 -82.08922 37871 ft 440 kts 304°
2026-05-07 20:53 10.40144 -82.14177 37871 ft 440 kts 304°
2026-05-07 20:53 10.43434 -82.19479 37870 ft 441 kts 304°
2026-05-07 20:54 10.46708 -82.24758 37876 ft 441 kts 304°
2026-05-07 20:54 10.50008 -82.30085 37888 ft 441 kts 304°
2026-05-07 20:55 10.53269 -82.35349 37892 ft 441 kts 304°
2026-05-07 20:55 10.56558 -82.40663 37890 ft 440 kts 304°
2026-05-07 20:56 10.59820 -82.45934 37888 ft 440 kts 304°
2026-05-07 20:56 10.63095 -82.51230 37891 ft 440 kts 304°
2026-05-07 20:57 10.66368 -82.56514 37894 ft 441 kts 305°
2026-05-07 20:57 10.70005 -82.61562 37894 ft 439 kts 311°
2026-05-07 20:58 10.74152 -82.66114 37891 ft 437 kts 318°
2026-05-07 20:58 10.78797 -82.70190 37886 ft 436 kts 323°
2026-05-07 20:59 10.83538 -82.74049 37882 ft 435 kts 323°
2026-05-07 20:59 10.88286 -82.77912 37881 ft 436 kts 323°
2026-05-07 21:00 10.93038 -82.81789 37881 ft 436 kts 323°
2026-05-07 21:00 10.97790 -82.85674 37882 ft 436 kts 323°
2026-05-07 21:01 11.02549 -82.89563 37883 ft 436 kts 323°
2026-05-07 21:01 11.07320 -82.93467 37884 ft 436 kts 323°
2026-05-07 21:02 11.12045 -82.97332 37887 ft 435 kts 323°
2026-05-07 21:02 11.16807 -83.01228 37888 ft 435 kts 323°
2026-05-07 21:03 11.21553 -83.05115 37889 ft 436 kts 323°
2026-05-07 21:03 11.26279 -83.08990 37901 ft 435 kts 323°
2026-05-07 21:04 11.31023 -83.12877 37902 ft 436 kts 322°
2026-05-07 21:04 11.35775 -83.16774 37901 ft 435 kts 323°
2026-05-07 21:05 11.40532 -83.20679 37906 ft 435 kts 323°
2026-05-07 21:05 11.45277 -83.24573 37900 ft 435 kts 323°
2026-05-07 21:06 11.50014 -83.28463 37904 ft 435 kts 322°
2026-05-07 21:06 11.54745 -83.32350 37901 ft 435 kts 323°
2026-05-07 21:07 11.59463 -83.36227 37900 ft 435 kts 323°
2026-05-07 21:07 11.64203 -83.40127 37891 ft 435 kts 323°
2026-05-07 21:08 11.68945 -83.44028 37891 ft 434 kts 323°
2026-05-07 21:08 11.73703 -83.47944 37890 ft 434 kts 323°
2026-05-07 21:09 11.78433 -83.51837 37892 ft 434 kts 323°
2026-05-07 21:09 11.83181 -83.55749 37893 ft 434 kts 323°
2026-05-07 21:10 11.87882 -83.59624 37899 ft 433 kts 323°
2026-05-07 21:10 11.92596 -83.63509 37898 ft 433 kts 323°
2026-05-07 21:11 11.97302 -83.67392 37906 ft 433 kts 322°
2026-05-07 21:11 12.04383 -83.73237 37911 ft 433 kts 322°
2026-05-07 21:12 12.09097 -83.77132 37908 ft 432 kts 322°
2026-05-07 21:12 12.13786 -83.81006 37898 ft 433 kts 322°
2026-05-07 21:13 12.18487 -83.84892 37897 ft 432 kts 322°
2026-05-07 21:13 12.23188 -83.88780 37894 ft 432 kts 322°
2026-05-07 21:14 12.27916 -83.92694 37889 ft 432 kts 322°
2026-05-07 21:14 12.32623 -83.96591 37886 ft 432 kts 322°
2026-05-07 21:15 12.37306 -84.00472 37886 ft 432 kts 322°
2026-05-07 21:15 12.41989 -84.04357 37889 ft 432 kts 322°
2026-05-07 21:16 12.46674 -84.08225 37892 ft 432 kts 323°
2026-05-07 21:16 12.51462 -84.12003 37894 ft 432 kts 324°
2026-05-07 21:17 12.56221 -84.15743 37895 ft 431 kts 324°
2026-05-07 21:17 12.61013 -84.19521 37895 ft 431 kts 324°
2026-05-07 21:18 12.65797 -84.23301 37894 ft 432 kts 323°
2026-05-07 21:18 12.70569 -84.27076 37893 ft 432 kts 323°
2026-05-07 21:19 12.75316 -84.30836 37891 ft 432 kts 324°
2026-05-07 21:19 12.80081 -84.34609 37892 ft 432 kts 324°
2026-05-07 21:20 12.84852 -84.38389 37893 ft 431 kts 324°
2026-05-07 21:20 12.89646 -84.42189 37894 ft 431 kts 323°
2026-05-07 21:21 12.94394 -84.45954 37895 ft 432 kts 323°
2026-05-07 21:21 12.99223 -84.49787 37896 ft 432 kts 323°
2026-05-07 21:22 13.04004 -84.53585 37896 ft 432 kts 323°
2026-05-07 21:22 13.08795 -84.57391 37898 ft 432 kts 323°
2026-05-07 21:23 13.13612 -84.61220 37897 ft 432 kts 323°
2026-05-07 21:23 13.18387 -84.65017 37901 ft 433 kts 323°
2026-05-07 21:24 13.23182 -84.68829 37904 ft 433 kts 323°
2026-05-07 21:24 13.27963 -84.72636 37911 ft 433 kts 323°
2026-05-07 21:25 13.32756 -84.76455 37917 ft 432 kts 323°
2026-05-07 21:25 13.37538 -84.80267 37916 ft 432 kts 323°
2026-05-07 21:26 13.42316 -84.84075 37921 ft 432 kts 323°
2026-05-07 21:26 13.47135 -84.87918 37921 ft 432 kts 323°
2026-05-07 21:27 13.51934 -84.91747 37920 ft 432 kts 323°
2026-05-07 21:27 13.56692 -84.95548 37935 ft 432 kts 323°
2026-05-07 21:28 13.61486 -84.99378 37962 ft 432 kts 323°
2026-05-07 21:28 13.66268 -85.03201 37983 ft 431 kts 323°
2026-05-07 21:29 13.71042 -85.07019 37995 ft 431 kts 323°
2026-05-07 21:29 13.75808 -85.10833 38009 ft 431 kts 323°
2026-05-07 21:30 13.80587 -85.14660 38001 ft 430 kts 322°
2026-05-07 21:30 13.85324 -85.18456 37984 ft 430 kts 322°
2026-05-07 21:31 13.90089 -85.22276 37966 ft 431 kts 323°
2026-05-07 21:31 13.94839 -85.26089 37950 ft 431 kts 323°
2026-05-07 21:32 13.99617 -85.29924 37940 ft 431 kts 322°
2026-05-07 21:32 14.04387 -85.33780 37936 ft 431 kts 321°
2026-05-07 21:33 14.08966 -85.37820 37943 ft 431 kts 320°
2026-05-07 21:33 14.13523 -85.41893 37952 ft 431 kts 320°
2026-05-07 21:34 14.18101 -85.45987 37968 ft 432 kts 320°
2026-05-07 21:34 14.22662 -85.50066 37989 ft 432 kts 320°
2026-05-07 21:35 14.27243 -85.54163 38002 ft 431 kts 320°
2026-05-07 21:35 14.31794 -85.58236 38004 ft 431 kts 320°
2026-05-07 21:36 14.36363 -85.62328 37999 ft 431 kts 320°
2026-05-07 21:36 14.40920 -85.66410 37992 ft 431 kts 319°
2026-05-07 21:37 14.45466 -85.70485 37984 ft 431 kts 319°
2026-05-07 21:37 14.50032 -85.74581 37975 ft 431 kts 319°
2026-05-07 21:38 14.54566 -85.78651 37962 ft 431 kts 319°
2026-05-07 21:38 14.59126 -85.82745 37966 ft 431 kts 319°
2026-05-07 21:39 14.63700 -85.86855 37965 ft 431 kts 319°
2026-05-07 21:39 14.68272 -85.90964 37965 ft 431 kts 319°
2026-05-07 21:40 14.72828 -85.95064 37969 ft 431 kts 319°
2026-05-07 21:40 14.77390 -85.99170 37967 ft 431 kts 319°
2026-05-07 21:41 14.81943 -86.03271 37991 ft 432 kts 319°
2026-05-07 21:41 14.86509 -86.07383 38026 ft 432 kts 319°
2026-05-07 21:42 14.91052 -86.11478 38049 ft 431 kts 319°
2026-05-07 21:42 14.95595 -86.15578 38079 ft 430 kts 319°
2026-05-07 21:43 15.00142 -86.19683 38105 ft 430 kts 319°
2026-05-07 21:43 15.04672 -86.23773 38113 ft 430 kts 319°
2026-05-07 21:44 15.09236 -86.27897 38100 ft 430 kts 319°
2026-05-07 21:44 15.13767 -86.31995 38091 ft 430 kts 319°
2026-05-07 21:45 15.18297 -86.36095 38085 ft 431 kts 319°
2026-05-07 21:45 15.22830 -86.40199 38077 ft 430 kts 319°
2026-05-07 21:46 15.27391 -86.44331 38073 ft 429 kts 319°
2026-05-07 21:46 15.31899 -86.48417 38063 ft 429 kts 319°
2026-05-07 21:47 15.36405 -86.52502 38053 ft 429 kts 319°
2026-05-07 21:47 15.40944 -86.56624 38047 ft 429 kts 319°
2026-05-07 21:48 15.45462 -86.60727 38055 ft 429 kts 319°
2026-05-07 21:48 15.49965 -86.64819 38063 ft 429 kts 319°
2026-05-07 21:49 15.54481 -86.68926 38058 ft 429 kts 319°
2026-05-07 21:49 15.59026 -86.73061 38036 ft 429 kts 319°
2026-05-07 21:50 15.63522 -86.77155 38007 ft 428 kts 319°
2026-05-07 21:50 15.68020 -86.81255 37950 ft 428 kts 319°
2026-05-07 21:51 15.72548 -86.85381 37909 ft 428 kts 319°
2026-05-07 21:51 15.77205 -86.89223 37879 ft 428 kts 322°
2026-05-07 21:52 15.81954 -86.92990 37865 ft 428 kts 322°
2026-05-07 21:52 15.86731 -86.96785 37865 ft 429 kts 322°
2026-05-07 21:53 15.91487 -87.00568 37853 ft 429 kts 322°
2026-05-07 21:53 15.96237 -87.04353 37848 ft 428 kts 322°
2026-05-07 21:54 16.00995 -87.08145 37844 ft 428 kts 322°
2026-05-07 21:54 16.05742 -87.11929 37842 ft 428 kts 322°
2026-05-07 21:55 16.10466 -87.15698 37842 ft 428 kts 322°
2026-05-07 21:55 16.15207 -87.19486 37847 ft 428 kts 322°
2026-05-07 21:56 16.19949 -87.23277 37855 ft 427 kts 322°
2026-05-07 21:56 16.24689 -87.27066 37858 ft 427 kts 322°
2026-05-07 21:57 16.29429 -87.30858 37856 ft 428 kts 322°
2026-05-07 21:57 16.34139 -87.34628 37856 ft 428 kts 322°
2026-05-07 21:58 16.38905 -87.38447 37857 ft 427 kts 322°
2026-05-07 21:58 16.43650 -87.42251 37856 ft 427 kts 322°
2026-05-07 21:59 16.48352 -87.46022 37855 ft 427 kts 322°
2026-05-07 21:59 16.53092 -87.49827 37856 ft 427 kts 322°
2026-05-07 22:00 16.57826 -87.53629 37856 ft 427 kts 322°
2026-05-07 22:00 16.62570 -87.57441 37857 ft 427 kts 322°
2026-05-07 22:01 16.67279 -87.61227 37864 ft 426 kts 322°
2026-05-07 22:01 16.72017 -87.65040 37867 ft 426 kts 322°
2026-05-07 22:02 16.76743 -87.68845 37870 ft 427 kts 322°
2026-05-07 22:02 16.81473 -87.72656 37873 ft 427 kts 322°
2026-05-07 22:03 16.86219 -87.76483 37874 ft 426 kts 322°
2026-05-07 22:03 16.90905 -87.80263 37878 ft 426 kts 322°
2026-05-07 22:04 16.95610 -87.84062 37880 ft 425 kts 322°
2026-05-07 22:04 17.00322 -87.87868 37878 ft 425 kts 322°
2026-05-07 22:05 17.05028 -87.91672 37883 ft 426 kts 322°
2026-05-07 22:05 17.09726 -87.95472 37883 ft 425 kts 322°
2026-05-07 22:06 17.14456 -87.99300 37883 ft 426 kts 322°
2026-05-07 22:06 17.19144 -88.03099 37875 ft 425 kts 322°
2026-05-07 22:07 17.23879 -88.06936 37871 ft 425 kts 322°
2026-05-07 22:07 17.28561 -88.10733 37872 ft 425 kts 322°
2026-05-07 22:08 17.33290 -88.14571 37872 ft 426 kts 322°
2026-05-07 22:08 17.38007 -88.18404 37876 ft 426 kts 322°
2026-05-07 22:09 17.42697 -88.22217 37877 ft 427 kts 322°
2026-05-07 22:09 17.47445 -88.26080 37881 ft 427 kts 322°
2026-05-07 22:10 17.52137 -88.29900 37879 ft 426 kts 322°
2026-05-07 22:10 17.56713 -88.33948 37882 ft 427 kts 319°
2026-05-07 22:11 17.61192 -88.38152 37883 ft 427 kts 318°
2026-05-07 22:11 17.65659 -88.42355 37882 ft 428 kts 318°
2026-05-07 22:12 17.70137 -88.46567 37888 ft 428 kts 318°
2026-05-07 22:12 17.74572 -88.50741 37885 ft 427 kts 318°
2026-05-07 22:13 17.79018 -88.54927 37885 ft 428 kts 319°
2026-05-07 22:13 17.83498 -88.59148 37884 ft 428 kts 318°
2026-05-07 22:14 17.87923 -88.63321 37881 ft 428 kts 318°
2026-05-07 22:14 17.92369 -88.67519 37879 ft 428 kts 318°
2026-05-07 22:15 17.96855 -88.71757 37874 ft 428 kts 318°
2026-05-07 22:15 18.01287 -88.76030 37873 ft 428 kts 315°
2026-05-07 22:16 18.05289 -88.80647 37874 ft 428 kts 310°
2026-05-07 22:16 18.09140 -88.85464 37873 ft 428 kts 310°
2026-05-07 22:17 18.12995 -88.90302 37874 ft 428 kts 310°
2026-05-07 22:17 18.16847 -88.95135 37880 ft 428 kts 310°
2026-05-07 22:18 18.22619 -89.02380 37887 ft 428 kts 310°
2026-05-07 22:19 18.26463 -89.07210 37890 ft 428 kts 310°
2026-05-07 22:19 18.30308 -89.12045 37892 ft 428 kts 310°
2026-05-07 22:20 18.34153 -89.16882 37892 ft 428 kts 310°
2026-05-07 22:20 18.38015 -89.21745 37894 ft 428 kts 310°
2026-05-07 22:21 18.41861 -89.26592 37896 ft 428 kts 310°
2026-05-07 22:21 18.45693 -89.31426 37895 ft 427 kts 310°
2026-05-07 22:22 18.49523 -89.36259 37895 ft 426 kts 310°
2026-05-07 22:22 18.53356 -89.41099 37896 ft 426 kts 310°
2026-05-07 22:23 18.57154 -89.45899 37896 ft 426 kts 310°
2026-05-07 22:23 18.60982 -89.50742 37898 ft 425 kts 310°
2026-05-07 22:24 18.64793 -89.55567 37899 ft 426 kts 310°
2026-05-07 22:24 18.68615 -89.60409 37895 ft 426 kts 310°
2026-05-07 22:25 18.72430 -89.65245 37889 ft 426 kts 310°
2026-05-07 22:25 18.76244 -89.70086 37887 ft 426 kts 310°
2026-05-07 22:26 18.80050 -89.74918 37880 ft 426 kts 310°
2026-05-07 22:26 18.83847 -89.79745 37871 ft 426 kts 310°
2026-05-07 22:27 18.87636 -89.84564 37865 ft 426 kts 310°
2026-05-07 22:27 18.91462 -89.89434 37858 ft 426 kts 310°
2026-05-07 22:28 18.95264 -89.94279 37854 ft 426 kts 310°
2026-05-07 22:28 18.99069 -89.99129 37848 ft 427 kts 310°
2026-05-07 22:29 19.02875 -90.03987 37841 ft 428 kts 310°
2026-05-07 22:29 19.06690 -90.08857 37837 ft 427 kts 310°
2026-05-07 22:30 19.10499 -90.13725 37835 ft 426 kts 310°
2026-05-07 22:30 19.14314 -90.18606 37822 ft 426 kts 310°
2026-05-07 22:31 19.18116 -90.23476 37809 ft 426 kts 310°
2026-05-07 22:31 19.21915 -90.28346 37803 ft 426 kts 310°
2026-05-07 22:32 19.25714 -90.33218 37802 ft 426 kts 310°
2026-05-07 22:32 19.29502 -90.38096 37803 ft 426 kts 309°
2026-05-07 22:33 19.33308 -90.42992 37805 ft 426 kts 310°
2026-05-07 22:33 19.37086 -90.47842 37806 ft 425 kts 310°
2026-05-07 22:34 19.40862 -90.52695 37805 ft 425 kts 309°
2026-05-07 22:34 19.44563 -90.57458 37807 ft 425 kts 309°
2026-05-07 22:35 19.48344 -90.62329 37809 ft 425 kts 309°
2026-05-07 22:35 19.52091 -90.67161 37809 ft 425 kts 309°
2026-05-07 22:36 19.55860 -90.72026 37807 ft 425 kts 309°
2026-05-07 22:36 19.59628 -90.76893 37805 ft 425 kts 309°
2026-05-07 22:37 19.63405 -90.81777 37804 ft 424 kts 309°
2026-05-07 22:37 19.67155 -90.86629 37805 ft 424 kts 309°
2026-05-07 22:38 19.70904 -90.91486 37808 ft 424 kts 309°
2026-05-07 22:38 19.74662 -90.96360 37807 ft 424 kts 309°
2026-05-07 22:39 19.78426 -91.01241 37810 ft 423 kts 309°
2026-05-07 22:39 19.82170 -91.06095 37812 ft 423 kts 309°
2026-05-07 22:40 19.85933 -91.10980 37815 ft 423 kts 309°
2026-05-07 22:40 19.89668 -91.15833 37817 ft 422 kts 309°
2026-05-07 22:41 19.93403 -91.20693 37821 ft 423 kts 309°
2026-05-07 22:41 19.97144 -91.25568 37825 ft 422 kts 309°
2026-05-07 22:42 20.00869 -91.30424 37822 ft 422 kts 309°
2026-05-07 22:42 20.04593 -91.35276 37825 ft 422 kts 309°
2026-05-07 22:43 20.08357 -91.40183 37824 ft 422 kts 309°
2026-05-07 22:43 20.12086 -91.45054 37821 ft 422 kts 309°
2026-05-07 22:44 20.15813 -91.49927 37824 ft 421 kts 309°
2026-05-07 22:44 20.19506 -91.54761 37823 ft 421 kts 309°
2026-05-07 22:45 20.23240 -91.59652 37826 ft 421 kts 309°
2026-05-07 22:45 20.26937 -91.64500 37825 ft 421 kts 309°
2026-05-07 22:46 20.30650 -91.69373 37825 ft 420 kts 308°
2026-05-07 22:46 20.34347 -91.74227 37830 ft 420 kts 308°
2026-05-07 22:47 20.38042 -91.79083 37830 ft 420 kts 308°
2026-05-07 22:47 20.41734 -91.83938 37836 ft 419 kts 308°
2026-05-07 22:48 20.45427 -91.88802 37836 ft 419 kts 308°
2026-05-07 22:48 20.49087 -91.93626 37837 ft 418 kts 308°
2026-05-07 22:49 20.52759 -91.98470 37839 ft 417 kts 308°
2026-05-07 22:49 20.56417 -92.03299 37839 ft 417 kts 308°
2026-05-07 22:50 20.60104 -92.08169 37843 ft 417 kts 308°
2026-05-07 22:50 20.63751 -92.12990 37844 ft 417 kts 308°
2026-05-07 22:51 20.67423 -92.17848 37846 ft 416 kts 308°
2026-05-07 22:51 20.71098 -92.22715 37850 ft 416 kts 308°
2026-05-07 22:52 20.74731 -92.27533 37845 ft 416 kts 308°
2026-05-07 22:52 20.78378 -92.32372 37850 ft 416 kts 308°
2026-05-07 22:53 20.82031 -92.37221 37855 ft 416 kts 308°
2026-05-07 22:53 20.85677 -92.42067 37858 ft 415 kts 308°
2026-05-07 22:54 20.89314 -92.46903 37858 ft 415 kts 308°
2026-05-07 22:54 20.92945 -92.51740 37858 ft 415 kts 308°
2026-05-07 22:55 20.96598 -92.56609 37861 ft 415 kts 308°
2026-05-07 22:55 21.00238 -92.61462 37855 ft 415 kts 308°
2026-05-07 22:56 21.03885 -92.66330 37853 ft 415 kts 307°
2026-05-07 22:56 21.07500 -92.71161 37847 ft 415 kts 307°
2026-05-07 22:57 21.11132 -92.76019 37845 ft 415 kts 307°
2026-05-07 22:57 21.14752 -92.80861 37848 ft 415 kts 307°
2026-05-07 22:58 21.18390 -92.85738 37844 ft 415 kts 307°
2026-05-07 22:58 21.22018 -92.90599 37846 ft 414 kts 307°
2026-05-07 22:59 21.25608 -92.95421 37852 ft 414 kts 307°
2026-05-07 22:59 21.29232 -93.00289 37849 ft 414 kts 307°
2026-05-07 23:00 21.32859 -93.05166 37853 ft 415 kts 307°
2026-05-07 23:00 21.36471 -93.10028 37860 ft 414 kts 307°
2026-05-07 23:01 21.40077 -93.14886 37864 ft 413 kts 307°
2026-05-07 23:01 21.43678 -93.19733 37866 ft 413 kts 307°
2026-05-07 23:02 21.47294 -93.24607 37868 ft 413 kts 307°
2026-05-07 23:02 21.50881 -93.29452 37866 ft 413 kts 307°
2026-05-07 23:03 21.54470 -93.34300 37867 ft 412 kts 306°
2026-05-07 23:03 21.58040 -93.39130 37868 ft 412 kts 306°
2026-05-07 23:04 21.61612 -93.43970 37864 ft 412 kts 306°
2026-05-07 23:04 21.65206 -93.48842 37863 ft 411 kts 306°
2026-05-07 23:05 21.68775 -93.53687 37859 ft 411 kts 306°
2026-05-07 23:05 21.72327 -93.58511 37855 ft 410 kts 306°
2026-05-07 23:06 21.75897 -93.63367 37855 ft 410 kts 306°
2026-05-07 23:06 21.79434 -93.68179 37854 ft 409 kts 306°
2026-05-07 23:07 21.82925 -93.73090 37857 ft 408 kts 302°
2026-05-07 23:07 21.86079 -93.78198 37856 ft 407 kts 301°
2026-05-07 23:08 21.89201 -93.83332 37856 ft 407 kts 301°
2026-05-07 23:08 21.92321 -93.88471 37854 ft 407 kts 301°
2026-05-07 23:09 21.95435 -93.93601 37859 ft 408 kts 301°
2026-05-07 23:09 21.98551 -93.98737 37856 ft 408 kts 300°
2026-05-07 23:10 22.01681 -94.03905 37861 ft 408 kts 300°
2026-05-07 23:10 22.04799 -94.09057 37862 ft 407 kts 300°
2026-05-07 23:11 22.07890 -94.14169 37866 ft 406 kts 300°
2026-05-07 23:11 22.11018 -94.19347 37867 ft 406 kts 300°
2026-05-07 23:12 22.14117 -94.24482 37869 ft 406 kts 300°
2026-05-07 23:12 22.17217 -94.29623 37863 ft 406 kts 300°
2026-05-07 23:13 22.20287 -94.34720 37861 ft 406 kts 300°
2026-05-07 23:13 22.23389 -94.39876 37863 ft 406 kts 300°
2026-05-07 23:14 22.26497 -94.45046 37864 ft 407 kts 300°
2026-05-07 23:14 22.29586 -94.50188 37867 ft 406 kts 300°
2026-05-07 23:15 22.32674 -94.55335 37865 ft 406 kts 300°
2026-05-07 23:15 22.35762 -94.60486 37864 ft 406 kts 300°
2026-05-07 23:16 22.38855 -94.65651 37865 ft 406 kts 299°
2026-05-07 23:16 22.41947 -94.70818 37864 ft 406 kts 299°
2026-05-07 23:17 22.45034 -94.75986 37863 ft 406 kts 299°
2026-05-07 23:17 22.48114 -94.81145 37862 ft 405 kts 299°
2026-05-07 23:18 22.51182 -94.86288 37862 ft 405 kts 299°
2026-05-07 23:18 22.54241 -94.91424 37860 ft 405 kts 299°
2026-05-07 23:19 22.57318 -94.96597 37859 ft 406 kts 299°
2026-05-07 23:19 22.60385 -95.01751 37860 ft 405 kts 299°
2026-05-07 23:20 22.63454 -95.06907 37857 ft 406 kts 299°
2026-05-07 23:20 22.66528 -95.12083 37854 ft 406 kts 299°
2026-05-07 23:21 22.69596 -95.17255 37853 ft 406 kts 299°
2026-05-07 23:21 22.72647 -95.22405 37853 ft 406 kts 298°
2026-05-07 23:22 22.75714 -95.27588 37854 ft 405 kts 298°
2026-05-07 23:22 22.78783 -95.32781 37855 ft 405 kts 298°
2026-05-07 23:23 22.81825 -95.37930 37854 ft 405 kts 298°
2026-05-07 23:23 22.84886 -95.43116 37856 ft 405 kts 298°
2026-05-07 23:24 22.87924 -95.48270 37860 ft 405 kts 298°
2026-05-07 23:24 22.90980 -95.53464 37864 ft 405 kts 298°
2026-05-07 23:25 22.94016 -95.58626 37867 ft 405 kts 298°
2026-05-07 23:25 22.97084 -95.63844 37867 ft 405 kts 298°
2026-05-07 23:26 23.00116 -95.69011 37871 ft 405 kts 298°
2026-05-07 23:26 23.03155 -95.74197 37879 ft 406 kts 298°
2026-05-07 23:27 23.07726 -95.82004 37872 ft 406 kts 298°
2026-05-07 23:27 23.10775 -95.87221 37866 ft 407 kts 298°
2026-05-07 23:28 23.13827 -95.92445 37865 ft 407 kts 298°
2026-05-07 23:28 23.16878 -95.97665 37866 ft 406 kts 298°
2026-05-07 23:29 23.19910 -96.02853 37864 ft 406 kts 298°
2026-05-07 23:29 23.22951 -96.08071 37869 ft 406 kts 298°
2026-05-07 23:30 23.25976 -96.13267 37868 ft 406 kts 298°
2026-05-07 23:30 23.29007 -96.18481 37872 ft 405 kts 298°
2026-05-07 23:31 23.32052 -96.23721 37865 ft 405 kts 298°
2026-05-07 23:31 23.35080 -96.28944 37865 ft 406 kts 298°
2026-05-07 23:32 23.38106 -96.34161 37865 ft 406 kts 298°
2026-05-07 23:32 23.41128 -96.39378 37868 ft 405 kts 298°
2026-05-07 23:33 23.44146 -96.44596 37862 ft 405 kts 298°
2026-05-07 23:33 23.47171 -96.49829 37864 ft 405 kts 298°
2026-05-07 23:34 23.50180 -96.55043 37858 ft 405 kts 298°
2026-05-07 23:34 23.53179 -96.60242 37861 ft 404 kts 298°
2026-05-07 23:35 23.56205 -96.65498 37855 ft 404 kts 297°
2026-05-07 23:35 23.59191 -96.70689 37858 ft 404 kts 298°
2026-05-07 23:36 23.62192 -96.75909 37859 ft 404 kts 297°
2026-05-07 23:36 23.65208 -96.81163 37856 ft 404 kts 297°
2026-05-07 23:37 23.68218 -96.86417 37859 ft 404 kts 297°
2026-05-07 23:37 23.71192 -96.91602 37858 ft 404 kts 298°
2026-05-07 23:38 23.74209 -96.96862 37856 ft 404 kts 297°
2026-05-07 23:38 23.77208 -97.02100 37859 ft 404 kts 297°
2026-05-07 23:39 23.80199 -97.07334 37854 ft 404 kts 297°
2026-05-07 23:39 23.83202 -97.12600 37857 ft 404 kts 297°
2026-05-07 23:40 23.86188 -97.17838 37859 ft 405 kts 297°
2026-05-07 23:40 23.89182 -97.23096 37859 ft 404 kts 297°
2026-05-07 23:41 23.92168 -97.28347 37860 ft 404 kts 297°
2026-05-07 23:41 23.95135 -97.33568 37858 ft 403 kts 297°
2026-05-07 23:42 23.98120 -97.38828 37861 ft 404 kts 297°
2026-05-07 23:42 24.01106 -97.44093 37860 ft 403 kts 297°
2026-05-07 23:43 24.04061 -97.49313 37861 ft 404 kts 297°
2026-05-07 23:43 24.07034 -97.54569 37860 ft 403 kts 297°
2026-05-07 23:44 24.10005 -97.59822 37860 ft 402 kts 297°
2026-05-07 23:44 24.12964 -97.65064 37858 ft 401 kts 297°
2026-05-07 23:45 24.15916 -97.70300 37860 ft 403 kts 297°
2026-05-07 23:45 24.18882 -97.75561 37860 ft 401 kts 297°
2026-05-07 23:46 24.21814 -97.80774 37860 ft 402 kts 297°
2026-05-07 23:46 24.24760 -97.86014 37862 ft 401 kts 297°
2026-05-07 23:47 24.27701 -97.91251 37862 ft 401 kts 296°
2026-05-07 23:47 24.30636 -97.96485 37864 ft 401 kts 297°
2026-05-07 23:48 24.33572 -98.01726 37864 ft 401 kts 297°
2026-05-07 23:48 24.36507 -98.06969 37862 ft 401 kts 296°
2026-05-07 23:49 24.39442 -98.12212 37857 ft 401 kts 296°
2026-05-07 23:49 24.42369 -98.17458 37862 ft 402 kts 296°
2026-05-07 23:50 24.45312 -98.22732 37864 ft 402 kts 296°
2026-05-07 23:50 24.48249 -98.28000 37868 ft 401 kts 296°
2026-05-07 23:51 24.51204 -98.33309 37871 ft 400 kts 296°
2026-05-07 23:51 24.54056 -98.38436 37871 ft 400 kts 296°
2026-05-07 23:52 24.56994 -98.43723 37869 ft 400 kts 296°
2026-05-07 23:52 24.59894 -98.48951 37876 ft 399 kts 295°
2026-05-07 23:53 24.62804 -98.54205 37887 ft 399 kts 295°
2026-05-07 23:53 24.65713 -98.59460 37897 ft 400 kts 296°
2026-05-07 23:54 24.68622 -98.64721 37916 ft 399 kts 295°
2026-05-07 23:54 24.71521 -98.69970 37930 ft 399 kts 295°
2026-05-07 23:55 24.74401 -98.75186 37939 ft 399 kts 294°
2026-05-07 23:55 24.77304 -98.80457 37940 ft 399 kts 295°
2026-05-07 23:56 24.80194 -98.85702 37941 ft 400 kts 294°
2026-05-07 23:56 24.83077 -98.90948 37934 ft 400 kts 294°
2026-05-07 23:57 24.85979 -98.96230 37943 ft 400 kts 294°
2026-05-07 23:57 24.88867 -99.01502 37934 ft 400 kts 294°
2026-05-07 23:58 24.91765 -99.06737 37924 ft 402 kts 295°
2026-05-07 23:58 24.95067 -99.11787 37932 ft 406 kts 301°
2026-05-07 23:59 24.98850 -99.16500 37928 ft 409 kts 304°
2026-05-07 23:59 25.02770 -99.21143 37923 ft 411 kts 304°
2026-05-08 00:00 25.06668 -99.25764 37918 ft 410 kts 304°
2026-05-08 00:00 25.10604 -99.30437 37921 ft 411 kts 305°
2026-05-08 00:01 25.14523 -99.35096 37941 ft 412 kts 305°
2026-05-08 00:01 25.18416 -99.39730 37947 ft 413 kts 304°
2026-05-08 00:02 25.22349 -99.44412 37940 ft 414 kts 305°
2026-05-08 00:02 25.26295 -99.49110 37961 ft 415 kts 304°
2026-05-08 00:03 25.30252 -99.53826 37981 ft 415 kts 304°
2026-05-08 00:03 25.34195 -99.58538 37974 ft 415 kts 304°
2026-05-08 00:04 25.38132 -99.63249 37993 ft 415 kts 304°
2026-05-08 00:04 25.42083 -99.67983 37994 ft 416 kts 304°
2026-05-08 00:05 25.46019 -99.72699 37984 ft 416 kts 304°
2026-05-08 00:05 25.49971 -99.77442 37986 ft 415 kts 304°
2026-05-08 00:06 25.53918 -99.82185 37992 ft 416 kts 304°
2026-05-08 00:06 25.57857 -99.86925 37992 ft 416 kts 304°
2026-05-08 00:07 25.61804 -99.91679 37992 ft 416 kts 304°
2026-05-08 00:07 25.65742 -99.96426 37992 ft 417 kts 304°
2026-05-08 00:08 25.69705 -100.01206 37992 ft 416 kts 304°
2026-05-08 00:08 25.73652 -100.05973 37980 ft 415 kts 304°
2026-05-08 00:09 25.77565 -100.10701 37979 ft 414 kts 304°
2026-05-08 00:09 25.81602 -100.15322 37976 ft 416 kts 305°
2026-05-08 00:10 25.85672 -100.19930 37975 ft 415 kts 305°
2026-05-08 00:10 25.89743 -100.24565 37975 ft 415 kts 305°
2026-05-08 00:11 25.93783 -100.29176 37974 ft 415 kts 305°
2026-05-08 00:11 25.97852 -100.33823 37968 ft 412 kts 305°
2026-05-08 00:12 26.01806 -100.38349 37976 ft 413 kts 305°
2026-05-08 00:12 26.05816 -100.42947 37976 ft 413 kts 305°
2026-05-08 00:13 26.09826 -100.47551 37985 ft 413 kts 305°
2026-05-08 00:13 26.13870 -100.52194 37993 ft 412 kts 305°
2026-05-08 00:14 26.17873 -100.56796 38004 ft 412 kts 305°
2026-05-08 00:14 26.21900 -100.61433 38011 ft 412 kts 304°
2026-05-08 00:15 26.25916 -100.66061 38018 ft 412 kts 304°
2026-05-08 00:15 26.29923 -100.70686 38017 ft 412 kts 304°
2026-05-08 00:16 26.33897 -100.75279 38015 ft 412 kts 304°
2026-05-08 00:16 26.37958 -100.79974 38013 ft 412 kts 304°
2026-05-08 00:17 26.41970 -100.84615 38007 ft 410 kts 304°
2026-05-08 00:17 26.46000 -100.89272 38013 ft 413 kts 304°
2026-05-08 00:18 26.50032 -100.93945 38019 ft 414 kts 304°
2026-05-08 00:18 26.54086 -100.98651 38018 ft 413 kts 304°
2026-05-08 00:19 26.58098 -101.03309 38024 ft 413 kts 304°
2026-05-08 00:19 26.62104 -101.07967 38032 ft 414 kts 304°
2026-05-08 00:20 26.66098 -101.12620 38043 ft 412 kts 304°
2026-05-08 00:20 26.70126 -101.17313 38076 ft 414 kts 303°
2026-05-08 00:21 26.74119 -101.21973 38108 ft 413 kts 303°
2026-05-08 00:21 26.78123 -101.26647 38137 ft 413 kts 303°
2026-05-08 00:22 26.82109 -101.31313 38108 ft 413 kts 303°
2026-05-08 00:22 26.86095 -101.35983 38075 ft 413 kts 303°
2026-05-08 00:23 26.90078 -101.40654 38059 ft 415 kts 303°
2026-05-08 00:23 26.94062 -101.45332 38042 ft 412 kts 303°
2026-05-08 00:24 26.97989 -101.50048 38025 ft 412 kts 301°
2026-05-08 00:24 27.01838 -101.54835 38022 ft 411 kts 301°
2026-05-08 00:25 27.05683 -101.59623 38025 ft 411 kts 301°
2026-05-08 00:25 27.09514 -101.64388 38027 ft 409 kts 301°
2026-05-08 00:26 27.13339 -101.69154 38036 ft 410 kts 300°
2026-05-08 00:26 27.17168 -101.73927 38041 ft 409 kts 300°
2026-05-08 00:27 27.20979 -101.78680 38052 ft 407 kts 300°
2026-05-08 00:27 27.24784 -101.83434 38077 ft 408 kts 300°
2026-05-08 00:28 27.28608 -101.88213 38097 ft 406 kts 300°
2026-05-08 00:28 27.32382 -101.92937 38131 ft 406 kts 300°
2026-05-08 00:29 27.36183 -101.97703 38152 ft 406 kts 300°
2026-05-08 00:29 27.39954 -102.02432 38163 ft 406 kts 299°
2026-05-08 00:30 27.43736 -102.07182 38159 ft 407 kts 299°
2026-05-08 00:30 27.47520 -102.11943 38153 ft 407 kts 300°
2026-05-08 00:31 27.51295 -102.16690 38146 ft 405 kts 300°
2026-05-08 00:31 27.55070 -102.21447 38154 ft 406 kts 299°
2026-05-08 00:32 27.58859 -102.26226 38152 ft 405 kts 299°
2026-05-08 00:32 27.62603 -102.30956 38148 ft 405 kts 299°
2026-05-08 00:33 27.66365 -102.35711 38145 ft 404 kts 299°
2026-05-08 00:33 27.70118 -102.40456 38140 ft 403 kts 299°
2026-05-08 00:34 27.73854 -102.45194 38138 ft 402 kts 299°
2026-05-08 00:34 27.77565 -102.49902 38140 ft 402 kts 299°
2026-05-08 00:35 27.81289 -102.54628 38137 ft 402 kts 298°
2026-05-08 00:35 27.85015 -102.59367 38141 ft 401 kts 298°
2026-05-08 00:36 27.88719 -102.64083 38150 ft 399 kts 298°
2026-05-08 00:36 27.92422 -102.68800 38158 ft 398 kts 298°
2026-05-08 00:37 27.96076 -102.73460 38150 ft 395 kts 298°
2026-05-08 00:38 28.01581 -102.80493 38138 ft 395 kts 298°
2026-05-08 00:38 28.05232 -102.85164 38136 ft 395 kts 298°
2026-05-08 00:39 28.08892 -102.89852 38140 ft 394 kts 298°
2026-05-08 00:39 28.12521 -102.94500 38142 ft 393 kts 297°
2026-05-08 00:40 28.16162 -102.99178 38151 ft 393 kts 298°
2026-05-08 00:40 28.19783 -103.03831 38155 ft 393 kts 297°
2026-05-08 00:41 28.23416 -103.08507 38143 ft 393 kts 298°
2026-05-08 00:41 28.27034 -103.13166 38127 ft 394 kts 298°
2026-05-08 00:42 28.30672 -103.17856 38107 ft 396 kts 298°
2026-05-08 00:42 28.34320 -103.22563 38088 ft 395 kts 298°
2026-05-08 00:43 28.37962 -103.27269 38080 ft 397 kts 298°
2026-05-08 00:43 28.41620 -103.32002 38097 ft 395 kts 298°
2026-05-08 00:44 28.45252 -103.36704 38115 ft 395 kts 298°
2026-05-08 00:44 28.48886 -103.41412 38139 ft 397 kts 297°
2026-05-08 00:45 28.52543 -103.46163 38156 ft 397 kts 297°
2026-05-08 00:45 28.56197 -103.50908 38165 ft 396 kts 297°
2026-05-08 00:46 28.59820 -103.55624 38151 ft 395 kts 297°
2026-05-08 00:46 28.63440 -103.60335 38136 ft 395 kts 297°
2026-05-08 00:47 28.67056 -103.65055 38129 ft 396 kts 297°
2026-05-08 00:47 28.70682 -103.69789 38133 ft 396 kts 297°
2026-05-08 00:48 28.74299 -103.74514 38140 ft 393 kts 296°
2026-05-08 00:48 28.77932 -103.79271 38142 ft 395 kts 296°
2026-05-08 00:49 28.81534 -103.83992 38142 ft 394 kts 296°
2026-05-08 00:49 28.85140 -103.88724 38140 ft 394 kts 296°
2026-05-08 00:50 28.88751 -103.93467 38137 ft 394 kts 296°
2026-05-08 00:50 28.92351 -103.98206 38144 ft 393 kts 296°
2026-05-08 00:51 28.95962 -104.02949 38153 ft 394 kts 296°
2026-05-08 00:51 28.99552 -104.07675 38145 ft 396 kts 296°
2026-05-08 00:52 29.03164 -104.12434 38148 ft 396 kts 296°
2026-05-08 00:52 29.06782 -104.17214 38130 ft 397 kts 296°
2026-05-08 00:53 29.10404 -104.22006 38117 ft 398 kts 296°
2026-05-08 00:53 29.14049 -104.26829 38105 ft 396 kts 296°
2026-05-08 00:54 29.17644 -104.31593 38096 ft 396 kts 296°
2026-05-08 00:54 29.21289 -104.36429 38095 ft 399 kts 296°
2026-05-08 00:55 29.24912 -104.41246 38092 ft 398 kts 296°
2026-05-08 00:55 29.28518 -104.46043 38109 ft 398 kts 297°
2026-05-08 00:56 29.32149 -104.50877 38106 ft 398 kts 296°
2026-05-08 00:56 29.35783 -104.55729 38096 ft 399 kts 297°
2026-05-08 00:57 29.39403 -104.60558 38063 ft 398 kts 297°
2026-05-08 00:57 29.43019 -104.65389 38042 ft 401 kts 296°
2026-05-08 00:58 29.46669 -104.70277 38031 ft 402 kts 296°
2026-05-08 00:58 29.50295 -104.75133 38028 ft 399 kts 296°
2026-05-08 00:59 29.53939 -104.80019 38015 ft 401 kts 296°
2026-05-08 00:59 29.57560 -104.84883 38009 ft 401 kts 296°
2026-05-08 01:00 29.61213 -104.89798 38017 ft 403 kts 296°
2026-05-08 01:00 29.64872 -104.94726 38031 ft 403 kts 296°
2026-05-08 01:01 29.68537 -104.99664 38032 ft 404 kts 296°
2026-05-08 01:01 29.72188 -105.04593 38052 ft 404 kts 296°
2026-05-08 01:02 29.75849 -105.09538 38062 ft 405 kts 296°
2026-05-08 01:02 29.79502 -105.14481 38073 ft 404 kts 296°
2026-05-08 01:03 29.83162 -105.19441 38087 ft 405 kts 296°
2026-05-08 01:03 29.86789 -105.24353 38106 ft 402 kts 296°
2026-05-08 01:04 29.90417 -105.29280 38102 ft 402 kts 296°
2026-05-08 01:04 29.94050 -105.34226 38107 ft 403 kts 296°
2026-05-08 01:05 29.97664 -105.39146 38107 ft 404 kts 296°
2026-05-08 01:05 30.01301 -105.44101 38098 ft 402 kts 296°
2026-05-08 01:06 30.04938 -105.49071 38092 ft 403 kts 296°
2026-05-08 01:06 30.08571 -105.54037 38074 ft 403 kts 296°
2026-05-08 01:07 30.12206 -105.59009 38073 ft 401 kts 296°
2026-05-08 01:07 30.15845 -105.64001 38071 ft 402 kts 296°
2026-05-08 01:08 30.19463 -105.68969 38086 ft 402 kts 296°
2026-05-08 01:08 30.23097 -105.73876 38089 ft 404 kts 297°
2026-05-08 01:09 30.27061 -105.78609 38095 ft 408 kts 300°
2026-05-08 01:09 30.31082 -105.83323 38099 ft 407 kts 300°
2026-05-08 01:10 30.35068 -105.88015 38091 ft 407 kts 300°
2026-05-08 01:10 30.39071 -105.92736 38104 ft 409 kts 300°
2026-05-08 01:11 30.43042 -105.97426 38116 ft 408 kts 301°
2026-05-08 01:11 30.47071 -106.02181 38100 ft 409 kts 301°
2026-05-08 01:12 30.51137 -106.06998 38100 ft 409 kts 301°
2026-05-08 01:12 30.55159 -106.11769 38095 ft 408 kts 301°
2026-05-08 01:13 30.59160 -106.16517 38095 ft 409 kts 301°
2026-05-08 01:13 30.63187 -106.21300 38091 ft 408 kts 301°
2026-05-08 01:14 30.67222 -106.26101 38097 ft 409 kts 301°
2026-05-08 01:14 30.71246 -106.30899 38088 ft 410 kts 302°
2026-05-08 01:15 30.75284 -106.35712 38084 ft 410 kts 302°
2026-05-08 01:15 30.79324 -106.40536 38074 ft 409 kts 302°
2026-05-08 01:16 30.83341 -106.45342 38062 ft 410 kts 302°
2026-05-08 01:16 30.87363 -106.50160 38067 ft 410 kts 303°
2026-05-08 01:17 30.91416 -106.55019 38074 ft 410 kts 303°
2026-05-08 01:17 30.95463 -106.59877 38061 ft 411 kts 303°
2026-05-08 01:18 30.99518 -106.64750 38056 ft 412 kts 303°
2026-05-08 01:18 31.03584 -106.69647 38062 ft 412 kts 303°
2026-05-08 01:19 31.07629 -106.74519 38047 ft 413 kts 303°
2026-05-08 01:19 31.11681 -106.79410 38047 ft 413 kts 303°
2026-05-08 01:20 31.15773 -106.84355 38044 ft 414 kts 303°
2026-05-08 01:20 31.19864 -106.89310 38057 ft 414 kts 304°
2026-05-08 01:21 31.23952 -106.94257 38045 ft 414 kts 304°
2026-05-08 01:21 31.28051 -106.99233 38052 ft 417 kts 304°
2026-05-08 01:22 31.32144 -107.04203 38064 ft 415 kts 304°
2026-05-08 01:22 31.36214 -107.09153 38073 ft 416 kts 304°
2026-05-08 01:23 31.40295 -107.14123 38078 ft 415 kts 304°
2026-05-08 01:23 31.44365 -107.19091 38065 ft 416 kts 304°
2026-05-08 01:24 31.48452 -107.24081 38075 ft 416 kts 305°
2026-05-08 01:24 31.52552 -107.29096 38084 ft 417 kts 305°
2026-05-08 01:25 31.56620 -107.34080 38071 ft 416 kts 305°
2026-05-08 01:25 31.60703 -107.39085 38088 ft 417 kts 305°
2026-05-08 01:26 31.64750 -107.44059 38093 ft 419 kts 306°
2026-05-08 01:26 31.68847 -107.49095 38093 ft 418 kts 306°
2026-05-08 01:27 31.72956 -107.54157 38092 ft 419 kts 306°
2026-05-08 01:27 31.77058 -107.59216 38090 ft 419 kts 306°
2026-05-08 01:28 31.81183 -107.64314 38099 ft 420 kts 306°
2026-05-08 01:28 31.85302 -107.69412 38109 ft 420 kts 306°
2026-05-08 01:29 31.89146 -107.74757 38109 ft 413 kts 298°
2026-05-08 01:29 31.92158 -107.80657 38110 ft 408 kts 289°
2026-05-08 01:30 31.94299 -107.86957 38114 ft 402 kts 281°
2026-05-08 01:30 31.95849 -107.93321 38119 ft 404 kts 280°
2026-05-08 01:31 31.97406 -107.99851 38129 ft 404 kts 280°
2026-05-08 01:31 31.98964 -108.06383 38126 ft 405 kts 280°
2026-05-08 01:32 32.00512 -108.12894 38126 ft 406 kts 280°
2026-05-08 01:32 32.02030 -108.19283 38120 ft 405 kts 280°
2026-05-08 01:33 32.03561 -108.25732 38123 ft 407 kts 280°
2026-05-08 01:33 32.05108 -108.32272 38130 ft 407 kts 280°
2026-05-08 01:34 32.06663 -108.38866 38135 ft 409 kts 281°
2026-05-08 01:34 32.08222 -108.45483 38128 ft 408 kts 281°
2026-05-08 01:35 32.09777 -108.52103 38127 ft 410 kts 281°
2026-05-08 01:35 32.11335 -108.58742 38123 ft 409 kts 281°
2026-05-08 01:36 32.12878 -108.65361 38120 ft 411 kts 280°
2026-05-08 01:36 32.14429 -108.72015 38138 ft 410 kts 280°
2026-05-08 01:37 32.15976 -108.78675 38120 ft 411 kts 281°
2026-05-08 01:37 32.17499 -108.85253 38123 ft 412 kts 281°
2026-05-08 01:38 32.19024 -108.91842 38126 ft 413 kts 281°
2026-05-08 01:38 32.20547 -108.98442 38143 ft 415 kts 281°
2026-05-08 01:39 32.22091 -109.05157 38140 ft 415 kts 281°
2026-05-08 01:39 32.23633 -109.11894 38132 ft 417 kts 282°
2026-05-08 01:40 32.25168 -109.18604 38109 ft 416 kts 282°
2026-05-08 01:40 32.26705 -109.25348 38100 ft 418 kts 282°
2026-05-08 01:41 32.28323 -109.32093 38092 ft 418 kts 283°
2026-05-08 01:41 32.29982 -109.38823 38102 ft 419 kts 283°
2026-05-08 01:42 32.31641 -109.45604 38094 ft 421 kts 284°
2026-05-08 01:42 32.33291 -109.52367 38096 ft 421 kts 284°
2026-05-08 01:43 32.34935 -109.59156 38105 ft 421 kts 284°
2026-05-08 01:43 32.36577 -109.65936 38118 ft 422 kts 284°
2026-05-08 01:44 32.38238 -109.72823 38131 ft 423 kts 284°
2026-05-08 01:44 32.39884 -109.79665 38139 ft 423 kts 284°
2026-05-08 01:45 32.41536 -109.86552 37705 ft 427 kts 284°
2026-05-08 01:45 32.42348 -109.89948 36986 ft 430 kts 284°
2026-05-08 01:45 32.43177 -109.93416 36175 ft 435 kts 285°
2026-05-08 01:45 32.44009 -109.96922 35324 ft 441 kts 285°
2026-05-08 01:46 32.44852 -110.00467 34637 ft 441 kts 286°
2026-05-08 01:46 32.45686 -110.03971 34409 ft 440 kts 286°
2026-05-08 01:46 32.46529 -110.07507 34175 ft 441 kts 287°
2026-05-08 01:46 32.47382 -110.11102 33934 ft 443 kts 287°
2026-05-08 01:47 32.48218 -110.14632 33626 ft 445 kts 288°
2026-05-08 01:47 32.49066 -110.18197 32882 ft 450 kts 288°
2026-05-08 01:47 32.49931 -110.21863 31690 ft 464 kts 289°
2026-05-08 01:48 32.51701 -110.29359 29959 ft 467 kts 290°
2026-05-08 01:48 32.52581 -110.33099 29417 ft 459 kts 290°
2026-05-08 01:48 32.53458 -110.36815 28809 ft 454 kts 290°
2026-05-08 01:48 32.54308 -110.40426 28200 ft 449 kts 290°
2026-05-08 01:49 32.55145 -110.43979 27555 ft 445 kts 290°
2026-05-08 01:49 32.55985 -110.47549 26894 ft 442 kts 290°
2026-05-08 01:49 32.56809 -110.51070 26292 ft 437 kts 289°
2026-05-08 01:49 32.57621 -110.54553 25658 ft 433 kts 289°
2026-05-08 01:50 32.58428 -110.58014 25036 ft 429 kts 289°
2026-05-08 01:50 32.59232 -110.61460 24411 ft 424 kts 288°
2026-05-08 01:50 32.60017 -110.64832 24021 ft 413 kts 288°
2026-05-08 01:50 32.60782 -110.68140 23672 ft 407 kts 288°
2026-05-08 01:51 32.61538 -110.71401 23036 ft 404 kts 288°
2026-05-08 01:51 32.62290 -110.74643 22461 ft 400 kts 288°
2026-05-08 01:51 32.63038 -110.77869 21924 ft 396 kts 287°
2026-05-08 01:51 32.63763 -110.81005 21398 ft 392 kts 288°
2026-05-08 01:52 32.64483 -110.84139 20865 ft 388 kts 288°
2026-05-08 01:52 32.65199 -110.87248 20347 ft 385 kts 287°
2026-05-08 01:52 32.65912 -110.90352 19821 ft 382 kts 288°
2026-05-08 01:52 32.66605 -110.93372 19302 ft 380 kts 288°
2026-05-08 01:53 32.67368 -110.96426 18760 ft 376 kts 293°
2026-05-08 01:53 32.68539 -110.99158 18248 ft 370 kts 306°
2026-05-08 01:53 32.70141 -111.01530 17722 ft 364 kts 315°
2026-05-08 01:53 32.71876 -111.03741 17195 ft 363 kts 317°
2026-05-08 01:54 32.73629 -111.05939 16669 ft 361 kts 316°
2026-05-08 01:54 32.75371 -111.08145 16161 ft 358 kts 316°
2026-05-08 01:54 32.77073 -111.10325 15657 ft 356 kts 316°
2026-05-08 01:54 32.78767 -111.12508 15156 ft 353 kts 316°
2026-05-08 01:55 32.80436 -111.14665 14657 ft 351 kts 316°
2026-05-08 01:55 32.82100 -111.16820 14164 ft 347 kts 316°
2026-05-08 01:55 32.83764 -111.18975 13669 ft 344 kts 316°
2026-05-08 01:55 32.85390 -111.21082 13175 ft 342 kts 316°
2026-05-08 01:56 32.87023 -111.23201 12673 ft 339 kts 316°
2026-05-08 01:56 32.88639 -111.25299 12167 ft 337 kts 316°
2026-05-08 01:56 32.90263 -111.27408 11663 ft 334 kts 316°
2026-05-08 01:56 32.91847 -111.29466 11169 ft 332 kts 315°
2026-05-08 01:57 32.93428 -111.31521 10667 ft 330 kts 315°
2026-05-08 01:57 32.94979 -111.33542 10259 ft 325 kts 315°
2026-05-08 01:57 32.96495 -111.35520 10014 ft 315 kts 315°
2026-05-08 01:57 32.97947 -111.37416 9714 ft 308 kts 315°
2026-05-08 01:58 32.99407 -111.39315 9380 ft 302 kts 315°
2026-05-08 01:58 33.00834 -111.41175 9116 ft 294 kts 315°
2026-05-08 01:58 33.02134 -111.43016 9077 ft 288 kts 304°
2026-05-08 01:58 33.02807 -111.45274 9070 ft 293 kts 279°
2026-05-08 01:59 33.02644 -111.47775 9073 ft 297 kts 261°
2026-05-08 01:59 33.02233 -111.50221 9060 ft 297 kts 261°
2026-05-08 01:59 33.01807 -111.52676 9054 ft 296 kts 261°
2026-05-08 01:59 33.01384 -111.55119 9049 ft 297 kts 261°
2026-05-08 02:00 33.00965 -111.57582 9045 ft 296 kts 261°
2026-05-08 02:00 33.00552 -111.60017 9022 ft 297 kts 261°
2026-05-08 02:00 33.00139 -111.62471 8904 ft 296 kts 261°
2026-05-08 02:00 32.99732 -111.64899 8787 ft 296 kts 261°
2026-05-08 02:01 32.99322 -111.67345 8668 ft 296 kts 261°
2026-05-08 02:01 32.98911 -111.69785 8547 ft 296 kts 261°
2026-05-08 02:01 32.98500 -111.72236 8424 ft 294 kts 261°
2026-05-08 02:01 32.98098 -111.74621 8305 ft 293 kts 261°
2026-05-08 02:02 32.97689 -111.77048 8187 ft 293 kts 261°
2026-05-08 02:02 32.97286 -111.79438 8068 ft 292 kts 261°
2026-05-08 02:02 32.96885 -111.81817 7945 ft 291 kts 261°
2026-05-08 02:02 32.96476 -111.84222 7825 ft 290 kts 261°
2026-05-08 02:03 32.96064 -111.86644 7696 ft 290 kts 261°
2026-05-08 02:03 32.95661 -111.89024 7574 ft 289 kts 261°
2026-05-08 02:03 32.95259 -111.91401 7456 ft 288 kts 261°
2026-05-08 02:03 32.94859 -111.93750 7336 ft 288 kts 261°
2026-05-08 02:04 32.94455 -111.96115 7219 ft 288 kts 261°
2026-05-08 02:04 32.94053 -111.98478 7095 ft 287 kts 261°
2026-05-08 02:04 32.93653 -112.00823 6979 ft 287 kts 261°
2026-05-08 02:04 32.93250 -112.03182 6864 ft 287 kts 261°
2026-05-08 02:05 32.92848 -112.05531 6753 ft 286 kts 261°
2026-05-08 02:05 32.92449 -112.07861 6638 ft 285 kts 261°
2026-05-08 02:05 32.92046 -112.10204 6522 ft 284 kts 261°
2026-05-08 02:05 32.91651 -112.12504 6406 ft 283 kts 261°
2026-05-08 02:06 32.91359 -112.14821 6285 ft 280 kts 272°
2026-05-08 02:06 32.91775 -112.17052 6164 ft 274 kts 297°
2026-05-08 02:06 32.92887 -112.18901 6047 ft 271 kts 314°
2026-05-08 02:06 32.94183 -112.20528 5932 ft 270 kts 315°
2026-05-08 02:07 32.95506 -112.22162 5808 ft 270 kts 315°
2026-05-08 02:07 32.96807 -112.23782 5690 ft 271 kts 315°
2026-05-08 02:07 32.98127 -112.25441 5569 ft 271 kts 315°
2026-05-08 02:07 32.99353 -112.26990 5455 ft 271 kts 315°
2026-05-08 02:08 33.00330 -112.28230 5368 ft 271 kts 315°
2026-05-08 02:08 33.01500 -112.29715 5267 ft 270 kts 314°
2026-05-08 02:08 33.02796 -112.31362 5153 ft 269 kts 314°
2026-05-08 02:08 33.04105 -112.33029 5052 ft 268 kts 314°
2026-05-08 02:09 33.05410 -112.34692 5045 ft 269 kts 314°
2026-05-08 02:09 33.06694 -112.36331 5043 ft 268 kts 314°
2026-05-08 02:09 33.07968 -112.37958 5038 ft 268 kts 314°
2026-05-08 02:09 33.09251 -112.39594 5035 ft 267 kts 314°
2026-05-08 02:10 33.10536 -112.41234 5034 ft 267 kts 314°
2026-05-08 02:10 33.11830 -112.42868 5030 ft 267 kts 316°
2026-05-08 02:10 33.13269 -112.44325 5004 ft 267 kts 324°
2026-05-08 02:10 33.14829 -112.45516 4885 ft 266 kts 329°
2026-05-08 02:11 33.16423 -112.46629 4753 ft 265 kts 330°
2026-05-08 02:11 33.18036 -112.47742 4585 ft 265 kts 330°
2026-05-08 02:11 33.19656 -112.48864 4402 ft 263 kts 330°
2026-05-08 02:11 33.21191 -112.49931 4343 ft 249 kts 330°
2026-05-08 02:12 33.22653 -112.50949 4304 ft 235 kts 329°
2026-05-08 02:12 33.24051 -112.51926 4277 ft 222 kts 329°
2026-05-08 02:12 33.25378 -112.52794 4235 ft 211 kts 339°
2026-05-08 02:12 33.26791 -112.52832 4139 ft 206 kts 21°
2026-05-08 02:13 33.27909 -112.51812 4092 ft 194 kts 42°
2026-05-08 02:13 33.28880 -112.50742 4003 ft 184 kts 39°
2026-05-08 02:13 33.29810 -112.49786 3901 ft 166 kts 38°
2026-05-08 02:13 33.30665 -112.48927 3751 ft 151 kts 37°
2026-05-08 02:14 33.31445 -112.48151 3512 ft 143 kts 37°
2026-05-08 02:14 33.32197 -112.47411 3283 ft 134 kts 37°
2026-05-08 02:14 33.32910 -112.46710 3112 ft 133 kts 37°
2026-05-08 02:14 33.33643 -112.45991 2933 ft 133 kts 37°
2026-05-08 02:15 33.34365 -112.45284 2763 ft 133 kts 37°
2026-05-08 02:15 33.35093 -112.44572 2589 ft 134 kts 38°
2026-05-08 02:15 33.35821 -112.43860 2412 ft 135 kts 38°
2026-05-08 02:15 33.36562 -112.43132 2228 ft 135 kts 39°
2026-05-08 02:16 33.37300 -112.42405 2043 ft 137 kts 39°
2026-05-08 02:16 33.38041 -112.41676 1863 ft 138 kts 40°
2026-05-08 02:16 33.38794 -112.40934 1680 ft 139 kts 40°
2026-05-08 02:16 33.39549 -112.40190 1494 ft 139 kts 40°
2026-05-08 02:17 33.40302 -112.39446 1307 ft 138 kts 40°
2026-05-08 02:17 33.41053 -112.38706 1120 ft 137 kts 40°
2026-05-08 02:17 33.41788 -112.38044 974 ft 113 kts 39°
2026-05-08 02:17 33.42175 -112.37682 980 ft 37 kts 38°
2026-05-08 02:18 33.42381 -112.37489 983 ft 34 kts 38°
2026-05-08 02:18 33.42564 -112.37320 984 ft 34 kts 38°
2026-05-08 02:18 33.42739 -112.37160 987 ft 15 kts 38°
2026-05-08 02:18 33.42827 -112.37094 987 ft 17 kts
2026-05-08 02:19 33.42887 -112.37145 989 ft 0 kts 309°
2026-05-08 02:21 33.42894 -112.37155 989 ft 4 kts 309°
2026-05-08 02:22 33.42926 -112.37202 990 ft 7 kts 309°
2026-05-08 02:22 33.42955 -112.37246 990 ft 4 kts 305°
2026-05-08 02:22 33.42963 -112.37286 990 ft 4 kts 268°
2026-05-08 02:22 33.42951 -112.37324 990 ft 4 kts 232°
2026-05-08 02:23 33.42918 -112.37357 990 ft 7 kts 219°
2026-05-08 02:23 33.42883 -112.37391 989 ft 3 kts 219°
2026-05-08 02:23 33.42874 -112.37399 989 ft 0 kts 219°
2026-05-08 02:23 33.42885 -112.37392 989 ft 2 kts 181°
2026-05-08 02:24 33.42899 -112.37397 989 ft 2 kts 166°
2026-05-08 02:24 33.42915 -112.37399 989 ft 2 kts 175°
2026-05-08 02:24 33.42930 -112.37402 990 ft 2 kts 171°
2026-05-08 02:24 33.42938 -112.37403 990 ft 0 kts 174°